This is the latest recevied weather packets stored in our database for station/object AD8BV. If no packets are shown the sender has not sent any weather packets the latest 10 day(s).
| Time | Temp. | Humidity | Pressure | Rain* | Wind** | Luminosity | Snow |
|---|---|---|---|---|---|---|---|
| 1777553611 | 5° C | 94% | 1016.4 hPa | 0 mm | - | 190 W/m² | - |
| 1777553308 | 4.44° C | 95% | 1016.6 hPa | 0 mm | - | 136 W/m² | - |
| 1777553004 | 5° C | 96% | 1016.8 hPa | 0 mm | - | 167 W/m² | - |
| 1777552704 | 4.44° C | 96% | 1016.8 hPa | 0 mm | - | 107 W/m² | - |
| 1777552400 | 4.44° C | 97% | 1016.9 hPa | 0 mm | - | 115 W/m² | - |
| 1777552097 | 3.89° C | 97% | 1016.9 hPa | 0 mm | - | 132 W/m² | - |
| 1777551794 | 3.89° C | 97% | 1016.7 hPa | 0 mm | - | 58 W/m² | - |
| 1777551492 | 3.89° C | 97% | 1016.8 hPa | 0 mm | - | 73 W/m² | - |
| 1777551188 | 3.89° C | 97% | 1016.8 hPa | 0 mm | - | 55 W/m² | - |
| 1777550885 | 3.89° C | 97% | 1016.5 hPa | 0 mm | - | 41 W/m² | - |
| 1777550582 | 3.89° C | 97% | 1016.6 hPa | 0 mm | - | 66 W/m² | - |
| 1777550277 | 3.89° C | 97% | 1016.7 hPa | 0 mm | - | 50 W/m² | - |
| 1777549974 | 3.89° C | 97% | 1016.6 hPa | 0 mm | - | 48 W/m² | - |
| 1777549671 | 3.89° C | 97% | 1016.7 hPa | 0 mm | - | 51 W/m² | - |
| 1777549366 | 3.33° C | 97% | 1016.7 hPa | 0 mm | - | 39 W/m² | - |
| 1777549064 | 3.33° C | 97% | 1016.5 hPa | 0 mm | - | 42 W/m² | - |
| 1777548759 | 3.33° C | 97% | 1016.6 hPa | 0 mm | - | 39 W/m² | - |
| 1777548457 | 3.33° C | 97% | 1016.3 hPa | 0 mm | - | 27 W/m² | - |
| 1777548153 | 3.33° C | 97% | 1016.5 hPa | 0 mm | - | 19 W/m² | - |
| 1777547850 | 3.33° C | 97% | 1016.5 hPa | 0 mm | - | 18 W/m² | - |
| 1777547546 | 3.33° C | 97% | 1016.6 hPa | 0 mm | - | 17 W/m² | - |
| 1777547244 | 3.33° C | 97% | 1016.3 hPa | 0 mm | - | 12 W/m² | - |
| 1777546940 | 3.33° C | 97% | 1016.6 hPa | 0 mm | - | 9 W/m² | - |
| 1777546637 | 3.33° C | 97% | 1016.5 hPa | 0 mm | - | 7 W/m² | - |
| 1777546334 | 2.78° C | 97% | 1016.4 hPa | 0 mm | - | 6 W/m² | - |
* Rain latest hour (hover to see other rain measurements)
** Current wind speed in m/s (hover to see current wind gust speed)